N869RS KSBS-KMYF

Flight info

Callsign N869RS
Flight time 2h 52m
Altitude 24000
Route AXIAL V220 EKR V26 JNC V8 HVE V208 PG V293 GCN V208 JLI
Aircraft TBM9/L-VGDW/C

Departure

Time 2026-04-20 02:31
Airport Steamboat Springs Bob Adams Field (KSBS)

Arrival

Time 2026-04-20 05:24
Airport Montgomery-Gibbs Executive Airport (KMYF)
Time Latitude Longitude Altitude Speed Heading
2026-04-20 02:04 40.51674 -106.86504 6883 ft 0 kts 235°
2026-04-20 02:23 40.51671 -106.86509 6883 ft 5 kts 234°
2026-04-20 02:23 40.51629 -106.86549 6882 ft 9 kts 243°
2026-04-20 02:23 40.51581 -106.86589 6881 ft 8 kts 133°
2026-04-20 02:24 40.51527 -106.86555 6880 ft 9 kts 151°
2026-04-20 02:24 40.51471 -106.86523 6881 ft 9 kts 165°
2026-04-20 02:24 40.51399 -106.86482 6882 ft 13 kts 152°
2026-04-20 02:24 40.51319 -106.86425 6883 ft 13 kts 158°
2026-04-20 02:25 40.51238 -106.86383 6884 ft 12 kts 159°
2026-04-20 02:25 40.51165 -106.86342 6886 ft 11 kts 149°
2026-04-20 02:25 40.51101 -106.86299 6886 ft 10 kts 160°
2026-04-20 02:25 40.51079 -106.86281 6886 ft 1 kts 63°
2026-04-20 02:26 40.51088 -106.86273 6886 ft 0 kts 342°
2026-04-20 02:26 40.51092 -106.86276 6886 ft 2 kts 326°
2026-04-20 02:26 40.51100 -106.86283 6886 ft 0 kts 333°
2026-04-20 02:31 40.51246 -106.86380 6884 ft 50 kts 334°
2026-04-20 02:31 40.51704 -106.86686 6882 ft 96 kts 333°
2026-04-20 02:31 40.52338 -106.87148 7121 ft 107 kts 332°
2026-04-20 02:31 40.52991 -106.87589 7508 ft 106 kts 336°
2026-04-20 02:32 40.53659 -106.87975 7902 ft 103 kts 335°
2026-04-20 02:32 40.54302 -106.88359 8228 ft 106 kts 334°
2026-04-20 02:32 40.55016 -106.88783 8499 ft 109 kts 326°
2026-04-20 02:32 40.55456 -106.89543 8830 ft 113 kts 288°
2026-04-20 02:33 40.55499 -106.90651 8970 ft 134 kts 253°
2026-04-20 02:33 40.54983 -106.91713 9210 ft 147 kts 226°
2026-04-20 02:33 40.54074 -106.92329 9598 ft 152 kts 185°
2026-04-20 02:33 40.53068 -106.91895 10008 ft 159 kts 145°
2026-04-20 02:34 40.52369 -106.90792 10463 ft 156 kts 129°
2026-04-20 02:34 40.51692 -106.89675 10884 ft 154 kts 130°
2026-04-20 02:34 40.50998 -106.88614 11285 ft 154 kts 145°
2026-04-20 02:34 40.50053 -106.87984 11632 ft 155 kts 163°
2026-04-20 02:35 40.49014 -106.87568 12010 ft 156 kts 171°
2026-04-20 02:35 40.47975 -106.87344 12494 ft 150 kts 178°
2026-04-20 02:35 40.46953 -106.87191 12999 ft 141 kts 178°
2026-04-20 02:35 40.45946 -106.87280 13286 ft 147 kts 200°
2026-04-20 02:36 40.44991 -106.87848 13535 ft 161 kts 223°
2026-04-20 02:36 40.44410 -106.89164 13667 ft 179 kts 263°
2026-04-20 02:36 40.44602 -106.90819 13967 ft 189 kts 285°
2026-04-20 02:36 40.45018 -106.92455 14477 ft 181 kts 289°
2026-04-20 02:37 40.45470 -106.93956 14980 ft 178 kts 292°
2026-04-20 02:37 40.45898 -106.95412 15573 ft 163 kts 290°
2026-04-20 02:37 40.46235 -106.96735 16166 ft 150 kts 287°
2026-04-20 02:37 40.46546 -106.98033 16428 ft 149 kts 287°
2026-04-20 02:38 40.46842 -106.99373 16605 ft 152 kts 285°
2026-04-20 02:38 40.47132 -107.00750 16688 ft 162 kts 287°
2026-04-20 02:38 40.47356 -107.02216 16831 ft 166 kts 276°
2026-04-20 02:38 40.47355 -107.03738 16985 ft 169 kts 268°
2026-04-20 02:39 40.47037 -107.05227 17156 ft 172 kts 247°
2026-04-20 02:39 40.46580 -107.06615 17552 ft 157 kts 255°
2026-04-20 02:39 40.46269 -107.07947 17881 ft 151 kts 260°
2026-04-20 02:39 40.46000 -107.09260 18138 ft 149 kts 259°
2026-04-20 02:40 40.45674 -107.10552 18340 ft 153 kts 252°
2026-04-20 02:40 40.45267 -107.11873 18533 ft 155 kts 252°
2026-04-20 02:40 40.44890 -107.13186 18739 ft 155 kts 255°
2026-04-20 02:40 40.44539 -107.14610 18691 ft 171 kts 255°
2026-04-20 02:41 40.44182 -107.16110 18854 ft 172 kts 255°
2026-04-20 02:41 40.43806 -107.17596 19048 ft 171 kts 254°
2026-04-20 02:41 40.43418 -107.19076 19226 ft 172 kts 254°
2026-04-20 02:41 40.43025 -107.20560 19399 ft 172 kts 254°
2026-04-20 02:42 40.42636 -107.22033 19573 ft 173 kts 254°
2026-04-20 02:42 40.42240 -107.23532 19730 ft 174 kts 254°
2026-04-20 02:42 40.41840 -107.25036 19929 ft 174 kts 254°
2026-04-20 02:42 40.41442 -107.26538 20120 ft 174 kts 254°
2026-04-20 02:43 40.41043 -107.28043 20301 ft 175 kts 255°
2026-04-20 02:43 40.40642 -107.29554 20484 ft 175 kts 254°
2026-04-20 02:43 40.40241 -107.31067 20654 ft 176 kts 254°
2026-04-20 02:43 40.39842 -107.32567 20826 ft 177 kts 254°
2026-04-20 02:44 40.39436 -107.34095 21002 ft 177 kts 254°
2026-04-20 02:44 40.39030 -107.35622 21172 ft 178 kts 254°
2026-04-20 02:44 40.38621 -107.37156 21353 ft 178 kts 254°
2026-04-20 02:44 40.38211 -107.38695 21506 ft 179 kts 255°
2026-04-20 02:45 40.37801 -107.40240 21670 ft 180 kts 254°
2026-04-20 02:45 40.37386 -107.41790 21853 ft 180 kts 254°
2026-04-20 02:45 40.36972 -107.43345 22026 ft 181 kts 254°
2026-04-20 02:45 40.36556 -107.44905 22215 ft 181 kts 254°
2026-04-20 02:46 40.36279 -107.45936 22339 ft 182 kts 254°
2026-04-20 02:46 40.35860 -107.47507 22518 ft 182 kts 254°
2026-04-20 02:46 40.35439 -107.49081 22691 ft 183 kts 254°
2026-04-20 02:46 40.35017 -107.50660 22867 ft 184 kts 254°
2026-04-20 02:47 40.34593 -107.52243 23052 ft 185 kts 254°
2026-04-20 02:47 40.34167 -107.53834 23217 ft 185 kts 254°
2026-04-20 02:47 40.33708 -107.55420 23389 ft 187 kts 246°
2026-04-20 02:47 40.32922 -107.56801 23562 ft 191 kts 230°
2026-04-20 02:48 40.31993 -107.58056 23726 ft 192 kts 231°
2026-04-20 02:48 40.31072 -107.59330 23874 ft 193 kts 231°
2026-04-20 02:48 40.30157 -107.60585 24023 ft 193 kts 231°
2026-04-20 02:48 40.29225 -107.61861 24156 ft 195 kts 231°
2026-04-20 02:49 40.28269 -107.63176 24159 ft 204 kts 231°
2026-04-20 02:49 40.27275 -107.64543 24170 ft 210 kts 231°
2026-04-20 02:49 40.26247 -107.65949 24173 ft 216 kts 230°
2026-04-20 02:49 40.25193 -107.67391 24161 ft 222 kts 230°
2026-04-20 02:50 40.24117 -107.68862 24165 ft 226 kts 230°
2026-04-20 02:50 40.23023 -107.70356 24170 ft 229 kts 230°
2026-04-20 02:50 40.21912 -107.71874 24171 ft 232 kts 230°
2026-04-20 02:50 40.20791 -107.73404 24179 ft 234 kts 230°
2026-04-20 02:51 40.19664 -107.74940 24173 ft 234 kts 230°
2026-04-20 02:51 40.18549 -107.76459 24182 ft 235 kts 230°
2026-04-20 02:51 40.17414 -107.78007 24182 ft 236 kts 230°
2026-04-20 02:51 40.16272 -107.79563 24188 ft 237 kts 230°
2026-04-20 02:52 40.15116 -107.81136 24187 ft 242 kts 230°
2026-04-20 02:52 40.13935 -107.82745 24196 ft 247 kts 230°
2026-04-20 02:52 40.12729 -107.84389 24196 ft 253 kts 230°
2026-04-20 02:52 40.11503 -107.86063 24191 ft 257 kts 229°
2026-04-20 02:53 40.10252 -107.87762 24189 ft 261 kts 229°
2026-04-20 02:53 40.08986 -107.89478 24198 ft 263 kts 229°
2026-04-20 02:53 40.07724 -107.91189 24192 ft 266 kts 229°
2026-04-20 02:53 40.06370 -107.92851 24185 ft 269 kts 219°
2026-04-20 02:54 40.04798 -107.94207 24185 ft 271 kts 217°
2026-04-20 02:54 40.03225 -107.95587 24182 ft 272 kts 218°
2026-04-20 02:54 40.01655 -107.96975 24186 ft 273 kts 217°
2026-04-20 02:54 40.00073 -107.98358 24187 ft 273 kts 217°
2026-04-20 02:55 39.98490 -107.99737 24184 ft 274 kts 217°
2026-04-20 02:55 39.96907 -108.01119 24177 ft 274 kts 217°
2026-04-20 02:55 39.95342 -108.02487 24166 ft 274 kts 217°
2026-04-20 02:55 39.93734 -108.03889 24159 ft 274 kts 217°
2026-04-20 02:56 39.92166 -108.05255 24152 ft 274 kts 217°
2026-04-20 02:56 39.90580 -108.06638 24149 ft 274 kts 217°
2026-04-20 02:56 39.88996 -108.08018 24140 ft 274 kts 217°
2026-04-20 02:56 39.87412 -108.09396 24135 ft 273 kts 217°
2026-04-20 02:57 39.85829 -108.10774 24126 ft 274 kts 217°
2026-04-20 02:57 39.84243 -108.12153 24123 ft 274 kts 217°
2026-04-20 02:57 39.82659 -108.13530 24113 ft 274 kts 217°
2026-04-20 02:57 39.81073 -108.14907 24117 ft 274 kts 217°
2026-04-20 02:58 39.79486 -108.16284 24113 ft 274 kts 217°
2026-04-20 02:58 39.77899 -108.17662 24105 ft 274 kts 217°
2026-04-20 02:58 39.76314 -108.19035 24104 ft 274 kts 217°
2026-04-20 02:58 39.74729 -108.20408 24100 ft 273 kts 217°
2026-04-20 02:59 39.73140 -108.21784 24097 ft 274 kts 217°
2026-04-20 02:59 39.71576 -108.23138 24098 ft 273 kts 217°
2026-04-20 02:59 39.69996 -108.24504 24099 ft 273 kts 217°
2026-04-20 02:59 39.68409 -108.25875 24100 ft 273 kts 217°
2026-04-20 03:00 39.66831 -108.27239 24100 ft 273 kts 217°
2026-04-20 03:00 39.65248 -108.28607 24101 ft 273 kts 217°
2026-04-20 03:00 39.63660 -108.29977 24090 ft 273 kts 217°
2026-04-20 03:00 39.62080 -108.31340 24095 ft 273 kts 217°
2026-04-20 03:01 39.60495 -108.32705 24096 ft 273 kts 217°
2026-04-20 03:01 39.58908 -108.34073 24089 ft 273 kts 217°
2026-04-20 03:01 39.57341 -108.35422 24091 ft 274 kts 217°
2026-04-20 03:01 39.55754 -108.36788 24089 ft 274 kts 217°
2026-04-20 03:02 39.54166 -108.38154 24088 ft 274 kts 217°
2026-04-20 03:02 39.52580 -108.39519 24087 ft 274 kts 217°
2026-04-20 03:02 39.50994 -108.40881 24086 ft 272 kts 217°
2026-04-20 03:02 39.49413 -108.42239 24086 ft 272 kts 217°
2026-04-20 03:03 39.47831 -108.43599 24083 ft 273 kts 217°
2026-04-20 03:03 39.46242 -108.44961 24088 ft 273 kts 216°
2026-04-20 03:03 39.44657 -108.46321 24098 ft 273 kts 216°
2026-04-20 03:03 39.43071 -108.47682 24095 ft 274 kts 216°
2026-04-20 03:04 39.41507 -108.49021 24091 ft 273 kts 216°
2026-04-20 03:04 39.39922 -108.50378 24101 ft 273 kts 216°
2026-04-20 03:04 39.38340 -108.51732 24092 ft 273 kts 216°
2026-04-20 03:04 39.36752 -108.53090 24105 ft 273 kts 216°
2026-04-20 03:05 39.35169 -108.54444 24101 ft 273 kts 216°
2026-04-20 03:05 39.33582 -108.55799 24109 ft 273 kts 216°
2026-04-20 03:05 39.31998 -108.57152 24103 ft 273 kts 216°
2026-04-20 03:05 39.30412 -108.58504 24113 ft 273 kts 216°
2026-04-20 03:06 39.28830 -108.59855 24114 ft 273 kts 216°
2026-04-20 03:06 39.27242 -108.61208 24119 ft 273 kts 216°
2026-04-20 03:06 39.25676 -108.62542 24120 ft 273 kts 216°
2026-04-20 03:06 39.24090 -108.63892 24122 ft 273 kts 216°
2026-04-20 03:07 39.22500 -108.65245 24123 ft 273 kts 216°
2026-04-20 03:07 39.20910 -108.66597 24121 ft 273 kts 216°
2026-04-20 03:07 39.19322 -108.67947 24129 ft 273 kts 215°
2026-04-20 03:07 39.17738 -108.69293 24127 ft 273 kts 215°
2026-04-20 03:08 39.16148 -108.70642 24126 ft 273 kts 215°
2026-04-20 03:08 39.14582 -108.71971 24121 ft 273 kts 215°
2026-04-20 03:08 39.12996 -108.73317 24122 ft 273 kts 215°
2026-04-20 03:08 39.11412 -108.74659 24111 ft 273 kts 215°
2026-04-20 03:09 39.09826 -108.76002 24118 ft 273 kts 215°
2026-04-20 03:09 39.08239 -108.77346 24107 ft 273 kts 215°
2026-04-20 03:09 39.06732 -108.78820 24120 ft 271 kts 226°
2026-04-20 03:09 39.05574 -108.80720 24122 ft 270 kts 240°
2026-04-20 03:10 39.04784 -108.82905 24114 ft 270 kts 249°
2026-04-20 03:10 39.04059 -108.85134 24110 ft 270 kts 248°
2026-04-20 03:10 39.03325 -108.87363 24105 ft 270 kts 248°
2026-04-20 03:10 39.02594 -108.89596 24098 ft 270 kts 248°
2026-04-20 03:11 39.01876 -108.91796 24092 ft 270 kts 248°
2026-04-20 03:11 39.01145 -108.94030 24085 ft 270 kts 248°
2026-04-20 03:11 39.00414 -108.96259 24083 ft 270 kts 248°
2026-04-20 03:11 38.99683 -108.98489 24077 ft 271 kts 248°
2026-04-20 03:12 38.98950 -109.00719 24077 ft 271 kts 248°
2026-04-20 03:12 38.98219 -109.02948 24076 ft 271 kts 248°
2026-04-20 03:12 38.97485 -109.05179 24068 ft 271 kts 248°
2026-04-20 03:12 38.96751 -109.07410 24074 ft 271 kts 247°
2026-04-20 03:13 38.96017 -109.09639 24067 ft 271 kts 247°
2026-04-20 03:13 38.95282 -109.11871 24066 ft 271 kts 247°
2026-04-20 03:13 38.94546 -109.14104 24068 ft 271 kts 247°
2026-04-20 03:13 38.93818 -109.16309 24057 ft 271 kts 247°
2026-04-20 03:14 38.93081 -109.18537 24062 ft 271 kts 247°
2026-04-20 03:14 38.92342 -109.20773 24065 ft 271 kts 247°
2026-04-20 03:14 38.91606 -109.23000 24063 ft 271 kts 247°
2026-04-20 03:14 38.90868 -109.25227 24055 ft 271 kts 247°
2026-04-20 03:15 38.90130 -109.27454 24059 ft 271 kts 247°
2026-04-20 03:15 38.89390 -109.29680 24063 ft 271 kts 246°
2026-04-20 03:15 38.88651 -109.31901 24061 ft 271 kts 246°
2026-04-20 03:15 38.87913 -109.34128 24066 ft 271 kts 246°
2026-04-20 03:16 38.87175 -109.36352 24070 ft 271 kts 246°
2026-04-20 03:16 38.86436 -109.38573 24074 ft 271 kts 246°
2026-04-20 03:16 38.85696 -109.40794 24071 ft 271 kts 246°
2026-04-20 03:16 38.84955 -109.43019 24079 ft 271 kts 246°
2026-04-20 03:17 38.84226 -109.45206 24076 ft 271 kts 246°
2026-04-20 03:17 38.83486 -109.47424 24085 ft 271 kts 246°
2026-04-20 03:17 38.82746 -109.49640 24082 ft 270 kts 246°
2026-04-20 03:17 38.82005 -109.51857 24090 ft 270 kts 246°
2026-04-20 03:18 38.81263 -109.54075 24088 ft 270 kts 246°
2026-04-20 03:18 38.80523 -109.56288 24093 ft 270 kts 246°
2026-04-20 03:18 38.79775 -109.58518 24097 ft 272 kts 246°
2026-04-20 03:18 38.79024 -109.60758 24102 ft 274 kts 246°
2026-04-20 03:19 38.78263 -109.63026 24107 ft 277 kts 246°
2026-04-20 03:19 38.77510 -109.65272 24108 ft 278 kts 246°
2026-04-20 03:19 38.76742 -109.67559 24103 ft 280 kts 246°
2026-04-20 03:19 38.75972 -109.69857 24112 ft 281 kts 246°
2026-04-20 03:20 38.75197 -109.72158 24110 ft 281 kts 246°
2026-04-20 03:20 38.74420 -109.74461 24107 ft 282 kts 246°
2026-04-20 03:20 38.73642 -109.76767 24106 ft 282 kts 246°
2026-04-20 03:20 38.72864 -109.79075 24111 ft 282 kts 246°
2026-04-20 03:21 38.72085 -109.81382 24108 ft 282 kts 246°
2026-04-20 03:21 38.71305 -109.83689 24109 ft 282 kts 246°
2026-04-20 03:21 38.70524 -109.85999 24102 ft 282 kts 246°
2026-04-20 03:21 38.69742 -109.88308 24101 ft 282 kts 245°
2026-04-20 03:22 38.68970 -109.90587 24092 ft 282 kts 245°
2026-04-20 03:22 38.68188 -109.92893 24091 ft 282 kts 245°
2026-04-20 03:22 38.67406 -109.95198 24091 ft 282 kts 245°
2026-04-20 03:22 38.66624 -109.97501 24084 ft 282 kts 245°
2026-04-20 03:23 38.65841 -109.99806 24083 ft 282 kts 245°
2026-04-20 03:23 38.65058 -110.02109 24080 ft 282 kts 245°
2026-04-20 03:23 38.64272 -110.04420 24075 ft 282 kts 245°
2026-04-20 03:23 38.63487 -110.06724 24074 ft 282 kts 245°
2026-04-20 03:24 38.62711 -110.08999 24069 ft 282 kts 245°
2026-04-20 03:24 38.61926 -110.11302 24063 ft 282 kts 245°
2026-04-20 03:24 38.61140 -110.13604 24064 ft 282 kts 245°
2026-04-20 03:24 38.60352 -110.15911 24062 ft 282 kts 245°
2026-04-20 03:25 38.59566 -110.18208 24055 ft 282 kts 245°
2026-04-20 03:25 38.58779 -110.20508 24062 ft 282 kts 245°
2026-04-20 03:25 38.57992 -110.22807 24061 ft 282 kts 245°
2026-04-20 03:25 38.57204 -110.25105 24057 ft 282 kts 245°
2026-04-20 03:26 38.56416 -110.27401 24062 ft 282 kts 245°
2026-04-20 03:26 38.55629 -110.29694 24066 ft 282 kts 245°
2026-04-20 03:26 38.54851 -110.31959 24068 ft 282 kts 244°
2026-04-20 03:26 38.54062 -110.34251 24077 ft 282 kts 244°
2026-04-20 03:27 38.53274 -110.36542 24076 ft 282 kts 244°
2026-04-20 03:27 38.52486 -110.38831 24086 ft 282 kts 244°
2026-04-20 03:27 38.51697 -110.41117 24092 ft 281 kts 244°
2026-04-20 03:27 38.50908 -110.43406 24097 ft 281 kts 244°
2026-04-20 03:28 38.50117 -110.45696 24095 ft 282 kts 244°
2026-04-20 03:28 38.49324 -110.47992 24106 ft 282 kts 244°
2026-04-20 03:28 38.47739 -110.52575 24119 ft 282 kts 244°
2026-04-20 03:29 38.46946 -110.54865 24119 ft 282 kts 244°
2026-04-20 03:29 38.46153 -110.57153 24130 ft 282 kts 244°
2026-04-20 03:29 38.45371 -110.59408 24129 ft 282 kts 244°
2026-04-20 03:29 38.44747 -110.61205 24128 ft 282 kts 244°
2026-04-20 03:30 38.44442 -110.62082 24132 ft 282 kts 244°
2026-04-20 03:30 38.43648 -110.64367 24134 ft 282 kts 244°
2026-04-20 03:30 38.42838 -110.66642 24125 ft 281 kts 240°
2026-04-20 03:30 38.41732 -110.68686 24129 ft 280 kts 227°
2026-04-20 03:31 38.40300 -110.70358 24132 ft 279 kts 215°
2026-04-20 03:31 38.38616 -110.71579 24131 ft 279 kts 203°
2026-04-20 03:31 38.36805 -110.72496 24130 ft 280 kts 202°
2026-04-20 03:31 38.35000 -110.73424 24134 ft 280 kts 202°
2026-04-20 03:32 38.33206 -110.74351 24135 ft 280 kts 202°
2026-04-20 03:32 38.31396 -110.75279 24124 ft 281 kts 202°
2026-04-20 03:32 38.29583 -110.76206 24115 ft 281 kts 202°
2026-04-20 03:32 38.28381 -110.76822 24115 ft 281 kts 202°
2026-04-20 03:33 38.26569 -110.77750 24110 ft 280 kts 202°
2026-04-20 03:33 38.24759 -110.78677 24107 ft 280 kts 202°
2026-04-20 03:33 38.22947 -110.79604 24096 ft 280 kts 202°
2026-04-20 03:33 38.21137 -110.80529 24095 ft 280 kts 202°
2026-04-20 03:34 38.19325 -110.81455 24086 ft 280 kts 202°
2026-04-20 03:34 38.17520 -110.82377 24084 ft 280 kts 202°
2026-04-20 03:34 38.15711 -110.83301 24082 ft 279 kts 202°
2026-04-20 03:34 38.13903 -110.84221 24069 ft 280 kts 202°
2026-04-20 03:35 38.12091 -110.85147 24063 ft 281 kts 202°
2026-04-20 03:35 38.10272 -110.86075 24057 ft 281 kts 202°
2026-04-20 03:35 38.08476 -110.86990 24049 ft 281 kts 202°
2026-04-20 03:35 38.06661 -110.87913 24048 ft 281 kts 202°
2026-04-20 03:36 38.04844 -110.88837 24047 ft 281 kts 202°
2026-04-20 03:36 38.03029 -110.89761 24040 ft 281 kts 202°
2026-04-20 03:36 38.01208 -110.90687 24048 ft 281 kts 202°
2026-04-20 03:36 37.99391 -110.91610 24043 ft 281 kts 202°
2026-04-20 03:37 37.97575 -110.92532 24041 ft 281 kts 202°
2026-04-20 03:37 37.95783 -110.93441 24045 ft 281 kts 202°
2026-04-20 03:37 37.93967 -110.94362 24042 ft 281 kts 202°
2026-04-20 03:37 37.92152 -110.95283 24038 ft 281 kts 202°
2026-04-20 03:38 37.90337 -110.96202 24040 ft 281 kts 202°
2026-04-20 03:38 37.88519 -110.97123 24037 ft 281 kts 202°
2026-04-20 03:38 37.86705 -110.98041 24036 ft 280 kts 202°
2026-04-20 03:38 37.84891 -110.98958 24039 ft 281 kts 202°
2026-04-20 03:39 37.83080 -110.99874 24040 ft 280 kts 202°
2026-04-20 03:39 37.81267 -111.00790 24029 ft 280 kts 202°
2026-04-20 03:39 37.79450 -111.01708 24039 ft 280 kts 202°
2026-04-20 03:39 37.77638 -111.02623 24032 ft 280 kts 202°
2026-04-20 03:40 37.75850 -111.03525 24034 ft 280 kts 202°
2026-04-20 03:40 37.74035 -111.04440 24032 ft 280 kts 202°
2026-04-20 03:40 37.72220 -111.05355 24029 ft 280 kts 202°
2026-04-20 03:40 37.70401 -111.06271 24029 ft 280 kts 202°
2026-04-20 03:41 37.68609 -111.07173 24024 ft 280 kts 202°
2026-04-20 03:41 37.66797 -111.08085 24022 ft 280 kts 202°
2026-04-20 03:41 37.64985 -111.08997 24018 ft 281 kts 202°
2026-04-20 03:41 37.63170 -111.09908 24022 ft 281 kts 202°
2026-04-20 03:42 37.61352 -111.10821 24017 ft 281 kts 202°
2026-04-20 03:42 37.59531 -111.11736 24022 ft 281 kts 202°
2026-04-20 03:42 37.57714 -111.12648 24022 ft 281 kts 202°
2026-04-20 03:42 37.55894 -111.13560 24020 ft 281 kts 202°
2026-04-20 03:43 37.54074 -111.14473 24017 ft 282 kts 202°
2026-04-20 03:43 37.52251 -111.15387 24013 ft 282 kts 201°
2026-04-20 03:43 37.50428 -111.16299 24016 ft 282 kts 201°
2026-04-20 03:43 37.48618 -111.17206 24015 ft 283 kts 202°
2026-04-20 03:44 37.46787 -111.18122 24013 ft 283 kts 202°
2026-04-20 03:44 37.44954 -111.19038 24009 ft 283 kts 202°
2026-04-20 03:44 37.43125 -111.19952 24011 ft 283 kts 202°
2026-04-20 03:44 37.41296 -111.20866 24008 ft 283 kts 202°
2026-04-20 03:45 37.39464 -111.21780 24014 ft 283 kts 201°
2026-04-20 03:45 37.37635 -111.22693 24010 ft 282 kts 201°
2026-04-20 03:45 37.35827 -111.23594 24002 ft 283 kts 201°
2026-04-20 03:45 37.33993 -111.24508 24005 ft 283 kts 201°
2026-04-20 03:46 37.32160 -111.25422 24000 ft 284 kts 201°
2026-04-20 03:46 37.30323 -111.26337 24003 ft 283 kts 201°
2026-04-20 03:46 37.28486 -111.27250 23998 ft 284 kts 201°
2026-04-20 03:46 37.26650 -111.28163 23999 ft 284 kts 201°
2026-04-20 03:47 37.24811 -111.29078 23999 ft 284 kts 201°
2026-04-20 03:47 37.22994 -111.29982 24006 ft 284 kts 201°
2026-04-20 03:47 37.21152 -111.30896 24002 ft 284 kts 201°
2026-04-20 03:47 37.19313 -111.31809 24010 ft 284 kts 201°
2026-04-20 03:48 37.17475 -111.32721 24008 ft 284 kts 201°
2026-04-20 03:48 37.15637 -111.33632 24022 ft 284 kts 201°
2026-04-20 03:48 37.13798 -111.34543 24021 ft 284 kts 201°
2026-04-20 03:48 37.11960 -111.35453 24031 ft 284 kts 201°
2026-04-20 03:49 37.10125 -111.36362 24033 ft 284 kts 201°
2026-04-20 03:49 37.08286 -111.37272 24043 ft 284 kts 201°
2026-04-20 03:49 37.06450 -111.38180 24049 ft 283 kts 201°
2026-04-20 03:49 37.04637 -111.39077 24053 ft 284 kts 201°
2026-04-20 03:50 37.02801 -111.39983 24055 ft 283 kts 201°
2026-04-20 03:50 37.00966 -111.40889 24069 ft 283 kts 201°
2026-04-20 03:50 36.99133 -111.41794 24071 ft 283 kts 202°
2026-04-20 03:50 36.97299 -111.42698 24060 ft 283 kts 202°
2026-04-20 03:51 36.95466 -111.43602 24072 ft 283 kts 202°
2026-04-20 03:51 36.93633 -111.44507 24069 ft 282 kts 202°
2026-04-20 03:51 36.91898 -111.45646 24075 ft 282 kts 211°
2026-04-20 03:51 36.90211 -111.46897 24075 ft 282 kts 210°
2026-04-20 03:52 36.88529 -111.48108 24073 ft 282 kts 210°
2026-04-20 03:52 36.86825 -111.49342 24068 ft 282 kts 210°
2026-04-20 03:52 36.85129 -111.50582 24064 ft 282 kts 210°
2026-04-20 03:52 36.83434 -111.51820 24065 ft 282 kts 210°
2026-04-20 03:53 36.81740 -111.53051 24060 ft 282 kts 210°
2026-04-20 03:53 36.80048 -111.54281 24049 ft 281 kts 211°
2026-04-20 03:53 36.78354 -111.55513 24042 ft 281 kts 211°
2026-04-20 03:53 36.76688 -111.56724 24029 ft 281 kts 211°
2026-04-20 03:54 36.75000 -111.57950 24027 ft 281 kts 211°
2026-04-20 03:54 36.73309 -111.59177 24025 ft 280 kts 211°
2026-04-20 03:54 36.71622 -111.60402 24019 ft 280 kts 211°
2026-04-20 03:54 36.69940 -111.61622 24014 ft 280 kts 211°
2026-04-20 03:55 36.68258 -111.62841 24007 ft 280 kts 211°
2026-04-20 03:55 36.66575 -111.64061 24000 ft 280 kts 211°
2026-04-20 03:55 36.64882 -111.65287 24001 ft 280 kts 211°
2026-04-20 03:55 36.63201 -111.66503 23995 ft 279 kts 211°
2026-04-20 03:56 36.61520 -111.67720 23986 ft 279 kts 211°
2026-04-20 03:56 36.59863 -111.68917 23983 ft 279 kts 211°
2026-04-20 03:56 36.58185 -111.70131 23981 ft 279 kts 211°
2026-04-20 03:56 36.56507 -111.71343 23984 ft 279 kts 211°
2026-04-20 03:57 36.54828 -111.72555 23985 ft 279 kts 211°
2026-04-20 03:57 36.53148 -111.73768 23991 ft 279 kts 211°
2026-04-20 03:57 36.51466 -111.74982 23994 ft 279 kts 211°
2026-04-20 03:57 36.49781 -111.76196 23994 ft 279 kts 211°
2026-04-20 03:58 36.48100 -111.77408 23992 ft 280 kts 211°
2026-04-20 03:58 36.46416 -111.78621 23986 ft 280 kts 211°
2026-04-20 03:58 36.44727 -111.79837 23994 ft 280 kts 211°
2026-04-20 03:58 36.43039 -111.81051 23994 ft 280 kts 211°
2026-04-20 03:59 36.41370 -111.82251 23997 ft 280 kts 211°
2026-04-20 03:59 36.39682 -111.83464 23994 ft 280 kts 211°
2026-04-20 03:59 36.37993 -111.84679 23993 ft 281 kts 211°
2026-04-20 03:59 36.36304 -111.85892 24001 ft 280 kts 211°
2026-04-20 04:00 36.34609 -111.87108 23999 ft 282 kts 211°
2026-04-20 04:00 36.32909 -111.88327 24000 ft 282 kts 211°
2026-04-20 04:00 36.31207 -111.89547 23999 ft 282 kts 211°
2026-04-20 04:00 36.29525 -111.90754 24003 ft 282 kts 211°
2026-04-20 04:01 36.27820 -111.91975 23998 ft 282 kts 211°
2026-04-20 04:01 36.26122 -111.93190 24003 ft 282 kts 211°
2026-04-20 04:01 36.24413 -111.94412 24017 ft 282 kts 211°
2026-04-20 04:01 36.22716 -111.95626 24030 ft 282 kts 210°
2026-04-20 04:02 36.21019 -111.96838 24050 ft 281 kts 211°
2026-04-20 04:02 36.19321 -111.98051 24058 ft 282 kts 210°
2026-04-20 04:02 36.17642 -111.99250 24074 ft 282 kts 210°
2026-04-20 04:02 36.15943 -112.00464 24097 ft 282 kts 210°
2026-04-20 04:03 36.14239 -112.01679 24111 ft 283 kts 210°
2026-04-20 04:03 36.12531 -112.02897 24121 ft 283 kts 210°
2026-04-20 04:03 36.10820 -112.04117 24155 ft 284 kts 210°
2026-04-20 04:03 36.09105 -112.05337 24165 ft 284 kts 210°
2026-04-20 04:04 36.07384 -112.06561 24180 ft 284 kts 210°
2026-04-20 04:04 36.05670 -112.07783 24198 ft 285 kts 210°
2026-04-20 04:04 36.03951 -112.09006 24205 ft 285 kts 210°
2026-04-20 04:04 36.02232 -112.10226 24215 ft 285 kts 210°
2026-04-20 04:05 36.00513 -112.11448 24218 ft 285 kts 210°
2026-04-20 04:05 35.98818 -112.12661 24214 ft 285 kts 212°
2026-04-20 04:05 35.97276 -112.14189 24231 ft 286 kts 225°
2026-04-20 04:05 35.96041 -112.16123 24230 ft 287 kts 237°
2026-04-20 04:06 35.95183 -112.18367 24233 ft 289 kts 250°
2026-04-20 04:06 35.94623 -112.20755 24230 ft 290 kts 252°
2026-04-20 04:06 35.94058 -112.23148 24230 ft 290 kts 252°
2026-04-20 04:06 35.93493 -112.25538 24230 ft 290 kts 252°
2026-04-20 04:07 35.92941 -112.27902 24207 ft 290 kts 252°
2026-04-20 04:07 35.92380 -112.30304 24188 ft 290 kts 252°
2026-04-20 04:07 35.91816 -112.32703 24169 ft 290 kts 252°
2026-04-20 04:07 35.91254 -112.35096 24155 ft 290 kts 252°
2026-04-20 04:08 35.90691 -112.37487 24136 ft 290 kts 252°
2026-04-20 04:08 35.90128 -112.39878 24121 ft 290 kts 252°
2026-04-20 04:08 35.89563 -112.42276 24102 ft 290 kts 252°
2026-04-20 04:08 35.88998 -112.44670 24083 ft 290 kts 252°
2026-04-20 04:09 35.88441 -112.47029 24062 ft 290 kts 252°
2026-04-20 04:09 35.87876 -112.49417 24042 ft 290 kts 252°
2026-04-20 04:09 35.87310 -112.51805 24021 ft 290 kts 252°
2026-04-20 04:09 35.86746 -112.54190 24000 ft 290 kts 252°
2026-04-20 04:10 35.86179 -112.56580 23985 ft 290 kts 252°
2026-04-20 04:10 35.85612 -112.58964 23963 ft 290 kts 252°
2026-04-20 04:10 35.85047 -112.61346 23973 ft 290 kts 252°
2026-04-20 04:10 35.84479 -112.63733 23973 ft 290 kts 252°
2026-04-20 04:11 35.83912 -112.66113 23965 ft 289 kts 252°
2026-04-20 04:11 35.83345 -112.68492 23972 ft 289 kts 252°
2026-04-20 04:11 35.82777 -112.70873 23970 ft 289 kts 252°
2026-04-20 04:11 35.82217 -112.73217 23971 ft 289 kts 252°
2026-04-20 04:12 35.81650 -112.75593 23968 ft 289 kts 252°
2026-04-20 04:12 35.81081 -112.77965 23969 ft 288 kts 252°
2026-04-20 04:12 35.80513 -112.80337 23965 ft 288 kts 252°
2026-04-20 04:12 35.79946 -112.82706 23965 ft 288 kts 252°
2026-04-20 04:13 35.79378 -112.85072 23961 ft 288 kts 252°
2026-04-20 04:13 35.78816 -112.87408 23959 ft 288 kts 252°
2026-04-20 04:13 35.78250 -112.89767 23961 ft 287 kts 252°
2026-04-20 04:13 35.77682 -112.92128 23962 ft 287 kts 252°
2026-04-20 04:14 35.77113 -112.94487 23960 ft 287 kts 252°
2026-04-20 04:14 35.76542 -112.96853 23955 ft 287 kts 252°
2026-04-20 04:14 35.75974 -112.99211 23959 ft 287 kts 252°
2026-04-20 04:14 35.75403 -113.01571 23952 ft 287 kts 251°
2026-04-20 04:15 35.74833 -113.03928 23957 ft 287 kts 251°
2026-04-20 04:15 35.74262 -113.06290 23951 ft 287 kts 251°
2026-04-20 04:15 35.73692 -113.08644 23949 ft 287 kts 251°
2026-04-20 04:15 35.73120 -113.11001 23949 ft 287 kts 251°
2026-04-20 04:16 35.72559 -113.13311 23945 ft 287 kts 251°
2026-04-20 04:16 35.71982 -113.15689 23942 ft 287 kts 251°
2026-04-20 04:16 35.71409 -113.18047 23943 ft 287 kts 251°
2026-04-20 04:16 35.70836 -113.20401 23939 ft 287 kts 251°
2026-04-20 04:17 35.70261 -113.22755 23932 ft 287 kts 251°
2026-04-20 04:17 35.69687 -113.25111 23929 ft 287 kts 251°
2026-04-20 04:17 35.69113 -113.27468 23927 ft 287 kts 251°
2026-04-20 04:17 35.68545 -113.29793 23932 ft 287 kts 251°
2026-04-20 04:18 35.67969 -113.32147 23929 ft 287 kts 251°
2026-04-20 04:18 35.67392 -113.34503 23925 ft 287 kts 251°
2026-04-20 04:18 35.66817 -113.36851 23923 ft 287 kts 251°
2026-04-20 04:18 35.66239 -113.39202 23918 ft 287 kts 251°
2026-04-20 04:19 35.65662 -113.41553 23923 ft 287 kts 251°
2026-04-20 04:19 35.65092 -113.43878 23914 ft 287 kts 251°
2026-04-20 04:19 35.64514 -113.46230 23916 ft 287 kts 251°
2026-04-20 04:19 35.63936 -113.48579 23913 ft 287 kts 251°
2026-04-20 04:20 35.63356 -113.50928 23905 ft 287 kts 251°
2026-04-20 04:20 35.62669 -113.53224 23906 ft 285 kts 242°
2026-04-20 04:20 35.61597 -113.55260 23904 ft 283 kts 230°
2026-04-20 04:20 35.60207 -113.56969 23899 ft 282 kts 221°
2026-04-20 04:21 35.59228 -113.58026 23897 ft 282 kts 221°
2026-04-20 04:21 35.57763 -113.59636 23897 ft 282 kts 221°
2026-04-20 04:21 35.55821 -113.61775 23890 ft 282 kts 221°
2026-04-20 04:21 35.54353 -113.63381 23895 ft 283 kts 221°
2026-04-20 04:22 35.53378 -113.64447 23894 ft 283 kts 221°
2026-04-20 04:22 35.51908 -113.66057 23899 ft 283 kts 221°
2026-04-20 04:22 35.50435 -113.67669 23906 ft 283 kts 221°
2026-04-20 04:22 35.48963 -113.69280 23909 ft 283 kts 221°
2026-04-20 04:23 35.47491 -113.70889 23925 ft 283 kts 221°
2026-04-20 04:23 35.46015 -113.72501 23927 ft 284 kts 221°
2026-04-20 04:23 35.44535 -113.74118 23937 ft 284 kts 221°
2026-04-20 04:23 35.43078 -113.75709 23946 ft 284 kts 221°
2026-04-20 04:24 35.41601 -113.77320 23957 ft 284 kts 221°
2026-04-20 04:24 35.40127 -113.78927 23966 ft 283 kts 221°
2026-04-20 04:24 35.38652 -113.80534 23980 ft 283 kts 221°
2026-04-20 04:24 35.37178 -113.82140 23990 ft 283 kts 221°
2026-04-20 04:25 35.35701 -113.83749 23999 ft 284 kts 221°
2026-04-20 04:25 35.34227 -113.85352 24005 ft 284 kts 221°
2026-04-20 04:25 35.32770 -113.86938 24019 ft 284 kts 221°
2026-04-20 04:25 35.31292 -113.88544 24021 ft 284 kts 221°
2026-04-20 04:26 35.29816 -113.90149 24014 ft 284 kts 221°
2026-04-20 04:26 35.28340 -113.91751 24016 ft 284 kts 221°
2026-04-20 04:26 35.26862 -113.93356 24016 ft 284 kts 221°
2026-04-20 04:26 35.25385 -113.94958 24019 ft 284 kts 222°
2026-04-20 04:27 35.23904 -113.96564 24022 ft 284 kts 221°
2026-04-20 04:27 35.22423 -113.98170 24020 ft 284 kts 221°
2026-04-20 04:27 35.20941 -113.99775 24023 ft 284 kts 221°
2026-04-20 04:27 35.19457 -114.01382 24019 ft 284 kts 221°
2026-04-20 04:28 35.17977 -114.02984 24004 ft 284 kts 221°
2026-04-20 04:28 35.16511 -114.04569 23993 ft 285 kts 221°
2026-04-20 04:28 35.15026 -114.06175 23979 ft 285 kts 221°
2026-04-20 04:28 35.13537 -114.07783 23972 ft 285 kts 221°
2026-04-20 04:29 35.12050 -114.09390 23956 ft 285 kts 221°
2026-04-20 04:29 35.10562 -114.10997 23942 ft 285 kts 221°
2026-04-20 04:29 35.09072 -114.12604 23925 ft 285 kts 221°
2026-04-20 04:29 35.07599 -114.14192 23911 ft 286 kts 221°
2026-04-20 04:30 35.06109 -114.15798 23895 ft 286 kts 222°
2026-04-20 04:30 35.04616 -114.17407 23875 ft 286 kts 222°
2026-04-20 04:30 35.03126 -114.19011 23862 ft 286 kts 222°
2026-04-20 04:30 35.01635 -114.20615 23826 ft 286 kts 222°
2026-04-20 04:31 35.00137 -114.22227 23826 ft 286 kts 222°
2026-04-20 04:31 34.98645 -114.23831 23825 ft 286 kts 222°
2026-04-20 04:31 34.97152 -114.25435 23821 ft 286 kts 222°
2026-04-20 04:31 34.95657 -114.27040 23815 ft 286 kts 222°
2026-04-20 04:32 34.94182 -114.28622 23822 ft 286 kts 221°
2026-04-20 04:32 34.92689 -114.30219 23817 ft 286 kts 221°
2026-04-20 04:32 34.91197 -114.31820 23826 ft 286 kts 222°
2026-04-20 04:32 34.89702 -114.33423 23831 ft 286 kts 222°
2026-04-20 04:33 34.88205 -114.35029 23836 ft 287 kts 222°
2026-04-20 04:33 34.86709 -114.36632 23838 ft 287 kts 222°
2026-04-20 04:33 34.85212 -114.38233 23842 ft 287 kts 222°
2026-04-20 04:33 34.83712 -114.39837 23849 ft 287 kts 222°
2026-04-20 04:34 34.82214 -114.41439 23856 ft 287 kts 222°
2026-04-20 04:34 34.80723 -114.43050 23854 ft 287 kts 223°
2026-04-20 04:34 34.79250 -114.44689 23860 ft 286 kts 223°
2026-04-20 04:34 34.77796 -114.46343 23868 ft 286 kts 223°
2026-04-20 04:35 34.76408 -114.48074 23880 ft 286 kts 233°
2026-04-20 04:35 34.75332 -114.50101 23897 ft 286 kts 238°
2026-04-20 04:35 34.74264 -114.52142 23901 ft 286 kts 238°
2026-04-20 04:35 34.73227 -114.54214 23900 ft 286 kts 239°
2026-04-20 04:36 34.71197 -114.58346 23897 ft 286 kts 239°
2026-04-20 04:36 34.70162 -114.60418 23897 ft 286 kts 239°
2026-04-20 04:36 34.69130 -114.62491 23893 ft 286 kts 239°
2026-04-20 04:37 34.68098 -114.64567 23892 ft 286 kts 239°
2026-04-20 04:37 34.67068 -114.66637 23889 ft 286 kts 239°
2026-04-20 04:37 34.66034 -114.68713 23884 ft 286 kts 239°
2026-04-20 04:37 34.65002 -114.70783 23879 ft 287 kts 239°
2026-04-20 04:38 34.63977 -114.72837 23871 ft 287 kts 239°
2026-04-20 04:38 34.62951 -114.74893 23870 ft 287 kts 239°
2026-04-20 04:38 34.61916 -114.76966 23860 ft 287 kts 239°
2026-04-20 04:38 34.60880 -114.79040 23856 ft 287 kts 239°
2026-04-20 04:39 34.59842 -114.81115 23852 ft 287 kts 239°
2026-04-20 04:39 34.58804 -114.83191 23849 ft 287 kts 239°
2026-04-20 04:39 34.57766 -114.85264 23847 ft 287 kts 239°
2026-04-20 04:39 34.56728 -114.87337 23847 ft 287 kts 239°
2026-04-20 04:40 34.55687 -114.89415 23834 ft 288 kts 239°
2026-04-20 04:40 34.54660 -114.91463 23838 ft 288 kts 239°
2026-04-20 04:40 34.53618 -114.93539 23836 ft 288 kts 239°
2026-04-20 04:40 34.52577 -114.95613 23828 ft 288 kts 239°
2026-04-20 04:41 34.51537 -114.97684 23832 ft 288 kts 239°
2026-04-20 04:41 34.50496 -114.99755 23833 ft 288 kts 239°
2026-04-20 04:41 34.49453 -115.01829 23829 ft 287 kts 239°
2026-04-20 04:41 34.48412 -115.03898 23840 ft 287 kts 239°
2026-04-20 04:42 34.47369 -115.05969 23840 ft 288 kts 238°
2026-04-20 04:42 34.46326 -115.08039 23832 ft 288 kts 239°
2026-04-20 04:42 34.45295 -115.10084 23830 ft 288 kts 238°
2026-04-20 04:42 34.44248 -115.12159 23837 ft 288 kts 238°
2026-04-20 04:43 34.43206 -115.14224 23833 ft 288 kts 239°
2026-04-20 04:43 34.42158 -115.16300 23837 ft 288 kts 238°
2026-04-20 04:43 34.41111 -115.18372 23840 ft 288 kts 238°
2026-04-20 04:43 34.40067 -115.20438 23837 ft 288 kts 238°
2026-04-20 04:44 34.39021 -115.22505 23841 ft 288 kts 238°
2026-04-20 04:44 34.37973 -115.24576 23838 ft 288 kts 238°
2026-04-20 04:44 34.36937 -115.26621 23836 ft 288 kts 238°
2026-04-20 04:44 34.35886 -115.28695 23841 ft 288 kts 238°
2026-04-20 04:45 34.34837 -115.30764 23838 ft 288 kts 238°
2026-04-20 04:45 34.33787 -115.32836 23835 ft 288 kts 238°
2026-04-20 04:45 34.32735 -115.34907 23837 ft 288 kts 238°
2026-04-20 04:45 34.31683 -115.36977 23841 ft 288 kts 238°
2026-04-20 04:46 34.30648 -115.39014 23845 ft 288 kts 238°
2026-04-20 04:46 34.29595 -115.41085 23850 ft 288 kts 238°
2026-04-20 04:46 34.28544 -115.43150 23843 ft 288 kts 238°
2026-04-20 04:46 34.27494 -115.45214 23841 ft 288 kts 238°
2026-04-20 04:47 34.26440 -115.47283 23850 ft 288 kts 238°
2026-04-20 04:47 34.25386 -115.49350 23852 ft 288 kts 238°
2026-04-20 04:47 34.24335 -115.51413 23847 ft 288 kts 238°
2026-04-20 04:47 34.23281 -115.53478 23849 ft 289 kts 238°
2026-04-20 04:48 34.22225 -115.55546 23851 ft 289 kts 238°
2026-04-20 04:48 34.21169 -115.57614 23858 ft 289 kts 238°
2026-04-20 04:48 34.20126 -115.59654 23853 ft 289 kts 238°
2026-04-20 04:48 34.19067 -115.61725 23864 ft 289 kts 238°
2026-04-20 04:49 34.18009 -115.63792 23862 ft 289 kts 238°
2026-04-20 04:49 34.16952 -115.65855 23867 ft 289 kts 238°
2026-04-20 04:49 34.15895 -115.67920 23865 ft 289 kts 238°
2026-04-20 04:49 34.14837 -115.69984 23871 ft 289 kts 238°
2026-04-20 04:50 34.13777 -115.72051 23867 ft 289 kts 238°
2026-04-20 04:50 34.12717 -115.74115 23881 ft 289 kts 238°
2026-04-20 04:50 34.11614 -115.76143 23877 ft 288 kts 231°
2026-04-20 04:50 34.10188 -115.77832 23887 ft 288 kts 218°
2026-04-20 04:51 34.08554 -115.79176 23888 ft 287 kts 214°
2026-04-20 04:51 34.06892 -115.80517 23883 ft 287 kts 214°
2026-04-20 04:51 34.05236 -115.81868 23888 ft 288 kts 214°
2026-04-20 04:51 34.03573 -115.83218 23892 ft 288 kts 214°
2026-04-20 04:52 34.01910 -115.84562 23897 ft 288 kts 214°
2026-04-20 04:52 34.00245 -115.85909 23899 ft 288 kts 214°
2026-04-20 04:52 33.98582 -115.87255 23896 ft 288 kts 214°
2026-04-20 04:52 33.96916 -115.88602 23897 ft 288 kts 214°
2026-04-20 04:53 33.95248 -115.89952 23766 ft 288 kts 214°
2026-04-20 04:53 33.93602 -115.91283 23607 ft 288 kts 214°
2026-04-20 04:53 33.91943 -115.92621 23439 ft 287 kts 214°
2026-04-20 04:53 33.90286 -115.93958 23251 ft 286 kts 214°
2026-04-20 04:54 33.88637 -115.95290 23065 ft 285 kts 214°
2026-04-20 04:54 33.86987 -115.96620 22864 ft 284 kts 214°
2026-04-20 04:54 33.85358 -115.97933 22687 ft 283 kts 213°
2026-04-20 04:54 33.83719 -115.99254 22497 ft 283 kts 213°
2026-04-20 04:55 33.82086 -116.00569 22311 ft 282 kts 213°
2026-04-20 04:55 33.80453 -116.01885 22130 ft 281 kts 213°
2026-04-20 04:55 33.78830 -116.03189 21945 ft 280 kts 213°
2026-04-20 04:55 33.77211 -116.04491 21766 ft 280 kts 213°
2026-04-20 04:56 33.75596 -116.05789 21583 ft 279 kts 213°
2026-04-20 04:56 33.73984 -116.07084 21402 ft 278 kts 213°
2026-04-20 04:56 33.72371 -116.08379 21216 ft 278 kts 213°
2026-04-20 04:56 33.70766 -116.09667 21041 ft 277 kts 213°
2026-04-20 04:57 33.69187 -116.10933 20867 ft 276 kts 213°
2026-04-20 04:57 33.67592 -116.12212 20683 ft 275 kts 213°
2026-04-20 04:57 33.65996 -116.13491 20503 ft 275 kts 213°
2026-04-20 04:57 33.64409 -116.14763 20322 ft 274 kts 213°
2026-04-20 04:58 33.62827 -116.16032 20156 ft 273 kts 214°
2026-04-20 04:58 33.61299 -116.17378 19986 ft 272 kts 216°
2026-04-20 04:58 33.59774 -116.18719 19815 ft 272 kts 215°
2026-04-20 04:58 33.58246 -116.20055 19640 ft 271 kts 215°
2026-04-20 04:59 33.56725 -116.21389 19479 ft 271 kts 215°
2026-04-20 04:59 33.55208 -116.22721 19311 ft 270 kts 215°
2026-04-20 04:59 33.53693 -116.24050 19146 ft 270 kts 215°
2026-04-20 04:59 33.52181 -116.25377 18982 ft 269 kts 215°
2026-04-20 05:00 33.50670 -116.26700 18821 ft 269 kts 215°
2026-04-20 05:00 33.49161 -116.28021 18656 ft 268 kts 215°
2026-04-20 05:00 33.47655 -116.29341 18499 ft 268 kts 215°
2026-04-20 05:00 33.46167 -116.30644 18337 ft 267 kts 215°
2026-04-20 05:01 33.44665 -116.31958 18184 ft 267 kts 215°
2026-04-20 05:01 33.43165 -116.33269 18002 ft 266 kts 215°
2026-04-20 05:01 33.41670 -116.34575 17826 ft 266 kts 215°
2026-04-20 05:01 33.40178 -116.35880 17637 ft 265 kts 215°
2026-04-20 05:02 33.38692 -116.37179 17466 ft 262 kts 215°
2026-04-20 05:02 33.37233 -116.38452 17249 ft 255 kts 215°
2026-04-20 05:02 33.35826 -116.39679 16982 ft 246 kts 215°
2026-04-20 05:02 33.34463 -116.40864 16729 ft 239 kts 214°
2026-04-20 05:03 33.33127 -116.42027 16471 ft 236 kts 214°
2026-04-20 05:03 33.31812 -116.43174 16222 ft 233 kts 214°
2026-04-20 05:03 33.30509 -116.44309 15978 ft 231 kts 215°
2026-04-20 05:03 33.29210 -116.45440 15733 ft 230 kts 214°
2026-04-20 05:04 33.27937 -116.46548 15491 ft 229 kts 215°
2026-04-20 05:04 33.26652 -116.47667 15252 ft 227 kts 214°
2026-04-20 05:04 33.25377 -116.48777 15021 ft 227 kts 214°
2026-04-20 05:04 33.24098 -116.49887 14781 ft 226 kts 214°
2026-04-20 05:05 33.22827 -116.50993 14544 ft 225 kts 214°
2026-04-20 05:05 33.21559 -116.52094 14315 ft 224 kts 214°
2026-04-20 05:05 33.20312 -116.53177 14083 ft 223 kts 214°
2026-04-20 05:05 33.19058 -116.54266 13858 ft 223 kts 214°
2026-04-20 05:06 33.17804 -116.55357 13619 ft 222 kts 214°
2026-04-20 05:06 33.17382 -116.55722 13525 ft 222 kts 214°
2026-04-20 05:06 33.15305 -116.57522 13103 ft 221 kts 214°
2026-04-20 05:06 33.14107 -116.58660 12862 ft 221 kts 224°
2026-04-20 05:07 33.13182 -116.60107 12628 ft 223 kts 234°
2026-04-20 05:07 33.12300 -116.61636 12381 ft 223 kts 233°
2026-04-20 05:07 33.11439 -116.63174 12136 ft 223 kts 240°
2026-04-20 05:07 33.10607 -116.64711 11878 ft 220 kts 221°
2026-04-20 05:08 33.09276 -116.65535 11611 ft 217 kts 195°
2026-04-20 05:08 33.07801 -116.65920 11370 ft 216 kts 191°
2026-04-20 05:08 33.06320 -116.66255 11134 ft 218 kts 191°
2026-04-20 05:08 33.04825 -116.66584 10892 ft 220 kts 191°
2026-04-20 05:09 33.03312 -116.66913 10660 ft 222 kts 191°
2026-04-20 05:09 33.02300 -116.67133 10502 ft 223 kts 191°
2026-04-20 05:09 33.00761 -116.67463 10270 ft 225 kts 191°
2026-04-20 05:09 32.98714 -116.67899 9963 ft 226 kts 191°
2026-04-20 05:10 32.97171 -116.68227 9711 ft 226 kts 191°
2026-04-20 05:10 32.95625 -116.68558 9445 ft 225 kts 191°
2026-04-20 05:10 32.94577 -116.68784 9264 ft 226 kts 191°
2026-04-20 05:10 32.93029 -116.69133 9021 ft 227 kts 192°
2026-04-20 05:11 32.92644 -116.69223 9002 ft 227 kts 191°
2026-04-20 05:11 32.91151 -116.69570 8990 ft 225 kts 191°
2026-04-20 05:11 32.89618 -116.69933 8818 ft 227 kts 192°
2026-04-20 05:11 32.88145 -116.70285 8620 ft 207 kts 192°
2026-04-20 05:12 32.86770 -116.70608 8426 ft 197 kts 191°
2026-04-20 05:12 32.85442 -116.70918 8240 ft 192 kts 191°
2026-04-20 05:12 32.84136 -116.71224 8064 ft 189 kts 192°
2026-04-20 05:12 32.82856 -116.71535 7896 ft 187 kts 192°
2026-04-20 05:13 32.81680 -116.72113 7760 ft 185 kts 221°
2026-04-20 05:13 32.81011 -116.73406 7619 ft 186 kts 249°
2026-04-20 05:13 32.80662 -116.74896 7464 ft 188 kts 256°
2026-04-20 05:13 32.80371 -116.76393 7301 ft 189 kts 256°
2026-04-20 05:14 32.80082 -116.77915 7136 ft 188 kts 256°
2026-04-20 05:14 32.79753 -116.79403 6960 ft 183 kts 249°
2026-04-20 05:14 32.79285 -116.80790 6787 ft 180 kts 246°
2026-04-20 05:14 32.78808 -116.82157 6621 ft 178 kts 246°
2026-04-20 05:15 32.78336 -116.83515 6443 ft 177 kts 246°
2026-04-20 05:15 32.77832 -116.84844 6267 ft 176 kts 243°
2026-04-20 05:15 32.77063 -116.85920 6066 ft 172 kts 212°
2026-04-20 05:15 32.76011 -116.86586 5858 ft 172 kts 206°
2026-04-20 05:16 32.74946 -116.87269 5582 ft 175 kts 210°
2026-04-20 05:16 32.73884 -116.87977 5290 ft 175 kts 205°
2026-04-20 05:16 32.72785 -116.88600 4962 ft 175 kts 205°
2026-04-20 05:16 32.71695 -116.89188 4680 ft 169 kts 202°
2026-04-20 05:17 32.70726 -116.89908 4459 ft 164 kts 225°
2026-04-20 05:17 32.70215 -116.91095 4141 ft 165 kts 260°
2026-04-20 05:17 32.70331 -116.92423 3854 ft 166 kts 290°
2026-04-20 05:17 32.70907 -116.93568 3691 ft 160 kts 314°
2026-04-20 05:18 32.71753 -116.94387 3608 ft 150 kts 327°
2026-04-20 05:18 32.72652 -116.95025 3524 ft 153 kts 328°
2026-04-20 05:18 32.73561 -116.95734 3503 ft 163 kts 329°
2026-04-20 05:18 32.74524 -116.96534 3525 ft 172 kts 322°
2026-04-20 05:19 32.75398 -116.97424 3325 ft 161 kts 315°
2026-04-20 05:19 32.76132 -116.98400 3137 ft 153 kts 304°
2026-04-20 05:19 32.76578 -116.99507 2933 ft 147 kts 285°
2026-04-20 05:19 32.76820 -117.00671 2749 ft 144 kts 284°
2026-04-20 05:20 32.77071 -117.01742 2638 ft 122 kts 285°
2026-04-20 05:20 32.77308 -117.02629 2540 ft 107 kts 288°
2026-04-20 05:20 32.77543 -117.03418 2389 ft 98 kts 291°
2026-04-20 05:20 32.77762 -117.04174 2153 ft 97 kts 290°
2026-04-20 05:21 32.78014 -117.04919 1981 ft 97 kts 293°
2026-04-20 05:21 32.78292 -117.05657 1850 ft 100 kts 294°
2026-04-20 05:21 32.78586 -117.06417 1724 ft 103 kts 294°
2026-04-20 05:21 32.78879 -117.07193 1597 ft 103 kts 295°
2026-04-20 05:22 32.79174 -117.07960 1486 ft 103 kts 294°
2026-04-20 05:22 32.79495 -117.08720 1322 ft 102 kts 297°
2026-04-20 05:22 32.79814 -117.09459 1168 ft 99 kts 295°
2026-04-20 05:22 32.80122 -117.10171 1036 ft 95 kts 298°
2026-04-20 05:23 32.80409 -117.10869 907 ft 92 kts 292°
2026-04-20 05:23 32.80673 -117.11559 783 ft 93 kts 292°
2026-04-20 05:23 32.80935 -117.12256 670 ft 93 kts 295°
2026-04-20 05:23 32.81213 -117.12945 512 ft 92 kts 293°
2026-04-20 05:24 32.81454 -117.13548 418 ft 70 kts 294°
2026-04-20 05:24 32.81592 -117.13903 419 ft 30 kts 290°
2026-04-20 05:24 32.81592 -117.14065 418 ft 17 kts 246°
2026-04-20 05:24 32.81584 -117.14084 422 ft 0 kts 243°
2026-04-20 05:25 32.81575 -117.14108 422 ft 8 kts 245°
2026-04-20 05:25 32.81574 -117.14110 422 ft 0 kts 245°